Regional Weather Roundup
Issued by NWS Albany, NY

Home | Current Version | Previous Version | Text Only | Print | Product List | Glossary On
Versions: 1 2 3 4 5 6 7 8 9 10 11 12 13 14 15 16 17 18 19 20 21 22 23 24 25 26 27 28 29 30 31 32 33 34 35 36 37 38 39 40 41 42 43 44 45 46 47 48 49 50
000
ASUS41 KALY 301210
RWRALY

NEW YORK STATE HOURLY WEATHER ROUNDUP
NATIONAL WEATHER SERVICE ALBANY NY
800 AM EDT THU JUL 30 2015

NOTE: "FAIR" INDICATES FEW OR NO CLOUDS BELOW 12,000 FEET WITH NO
SIGNIFICANT WEATHER AND/OR NO OBSTRUCTIONS TO VISIBILITY.

NYZ032-033-038>043-046>054-057>066-NYZ062>081-301300-
EAST


CITY           SKY/WX    TMP DP  RH WIND       PRES   REMARKS
ALBANY         PTSUNNY   77  68  73 S10       29.86S
GLENS FALLS    PTSUNNY   75  66  73 S8        29.84F
POUGHKEEPSIE   CLOUDY    78  71  79 CALM      29.88F
NEWBURGH       CLOUDY    77  73  88 W7        29.92S
MONTGOMERY     CLOUDY    77  73  87 S7        29.90S
WHITE PLAINS   PTSUNNY   77  73  87 SE5       29.92S
ISLIP          PTSUNNY   78  72  81 SW10      29.91F
NEW YORK CITY  PTSUNNY   80  71  74 SW9       29.91S
CENTRAL PARK   PTSUNNY   80  71  74 MISG      29.94S
$$

NYZ005>009-017-018-044>046-055-056-301300-
CENTRAL


CITY           SKY/WX    TMP DP  RH WIND       PRES   REMARKS
FULTON         CLOUDY    75  71  87 SW7       29.81R
SYRACUSE       CLOUDY    80  71  74 SW9       29.80S
ROME           PTSUNNY   75  69  81 E7        29.83F
ELMIRA         LGT RAIN  71  68  90 CALM      29.86S
BINGHAMTON     PTSUNNY   72  70  93 S7        29.90F FOG
MONTICELLO     PTSUNNY   72  70  94 S3        29.95S
$$

NYZ026>034-041>043-301300-
NORTH


CITY           SKY/WX    TMP DP  RH WIND       PRES   REMARKS
WATERTOWN      CLOUDY    77  69  76 SW9       29.77S HAZE
FORT DRUM      NOT AVBL
MASSENA        MOSUNNY   77  67  71 S8        29.75F
SARANAC LAKE   SUNNY     72  66  81 SW5       29.83F
PLATTSBURGH    SUNNY     73  67  81 CALM      29.78F HAZE
$$

NYZ001>004-010>016-019>021-301300-
WEST


CITY           SKY/WX    TMP DP  RH WIND       PRES   REMARKS
NIAGARA FALLS  PTSUNNY   71  60  68 W9        29.86R
BUFFALO        PTSUNNY   73  62  68 W10       29.87R
DUNKIRK        MOSUNNY   72  66  81 SW3       29.90S
JAMESTOWN      MOSUNNY   68  63  83 W9        29.96R
WELLSVILLE     CLOUDY    71  67  87 NW8       29.96S
ROCHESTER      CLOUDY    72  70  93 SW9       29.84S
PENN YAN       RAIN      74  71  91 SW5       29.86S FOG
$$

             KEY
       WCI = WIND CHILL INDEX
       VSB = VISIBILITY
       HX  = HEAT INDEX
$$


USA.gov is the U.S. government's official web portal to all federal, state and local government web resources and services.